Regional Weather Roundup
Issued by NWS

Home | Current Version | Previous Version | Graphics & Text | Print | Product List | Glossary On
Versions: 1 2 3 4 5 6 7 8 9 10 11 12 13 14 15 16 17 18 19 20 21 22 23 24 25 26 27 28 29 30 31 32 33 34 35 36 37 38 39 40 41 42 43 44 45 46 47 48 49 50
000
ASUS43 KBIS 061310
RWRND

NORTH DAKOTA REGIONAL WEATHER ROUNDUP
NATIONAL WEATHER SERVICE BISMARCK ND
800 AM CDT WED MAY 06 2015

NOTE: "FAIR" INDICATES FEW OR NO CLOUDS BELOW 12,000 FEET WITH NO
SIGNIFICANT WEATHER AND/OR OBSTRUCTIONS TO VISIBILITY.


NDZ001>003-009>011-017-061400-
NORTHWEST NORTH DAKOTA

CITY           SKY/WX    TMP DP  RH WIND       PRES   REMARKS
WILLISTON      PTSUNNY   59  53  80 S13       29.69S
MINOT          CLOUDY    59  55  87 SE7       29.76S
MINOT AFB      CLOUDY    59  59 100 S13       29.75S
$$

NDZ018>021-031>035-040>046-061400-
SOUTHWEST NORTH DAKOTA

CITY           SKY/WX    TMP DP  RH WIND       PRES   REMARKS
BISMARCK       LGT RAIN  59  27  29 SE13      29.79S
DICKINSON      CLOUDY    56  53  90 SE10      29.73S
GARRISON         N/A     59  56  89 S10       29.77S
HETTINGER ARPT CLOUDY    55  53  93 SE14      29.76R FOG
$$

NDZ004>008-012>016-024-026-027-054-061400-
NORTHEAST NORTH DAKOTA

CITY           SKY/WX    TMP DP  RH WIND       PRES   REMARKS
GRAND FORKS    CLOUDY    60  56  86 S13       29.91S
GRND FRKS AFB  CLOUDY    59  55  87 S15       29.90S
DEVILS LAKE    CLOUDY    57  54  88 S9        29.87R
$$

NDZ022-023-025-028>030-036>039-047>053-061400-
SOUTHEAST NORTH DAKOTA

CITY           SKY/WX    TMP DP  RH WIND       PRES   REMARKS
FARGO          CLOUDY    59  55  87 SE21G33   29.93S
JAMESTOWN      CLOUDY    56  55  97 SE15      29.87S FOG
$$



USA.gov is the U.S. government's official web portal to all federal, state and local government web resources and services.